Location: Caltech
(34.1382°N, 118.1253°W)
Time: 16:22:36
(UTC-07:00)

Cosmos 1939 Rocket - Visible Passes

Search period start: 03 August 2015 00:00
Search period end: 13 August 2015 00:00
Orbit: 534 x 592 km, 97.6° (Epoch: 03 August)

Date Brightness Start Highest point End Pass type
(mag) Time Alt. Az. Time Alt. Az. Time Alt. Az.
03 Aug 3.5 21:02:36 23° SE 21:04:32 37° ENE 21:08:16 10° N visible
03 Aug 5.5 22:38:35 12° WSW 22:39:43 13° W 22:41:30 10° WNW visible
04 Aug 3.6 21:02:19 23° ESE 21:04:10 37° ENE 21:07:54 10° N visible
04 Aug 5.5 22:38:18 12° WSW 22:39:21 13° W 22:41:10 10° WNW visible
05 Aug 3.6 21:02:03 24° ESE 21:03:48 36° ENE 21:07:31 10° N visible
05 Aug 5.5 22:38:01 12° WSW 22:38:59 13° W 22:40:49 10° WNW visible
06 Aug 3.6 21:01:45 24° ESE 21:03:26 36° ENE 21:07:07 10° N visible
06 Aug 5.5 22:37:44 13° WSW 22:38:37 13° W 22:40:28 10° WNW visible
07 Aug 3.6 21:01:28 25° ESE 21:03:04 35° ENE 21:06:44 10° N visible
07 Aug 5.5 22:37:27 13° WSW 22:38:14 13° W 22:40:06 10° WNW visible
08 Aug 3.6 21:01:11 25° ESE 21:02:41 35° ENE 21:06:20 10° N visible
08 Aug 5.5 22:37:10 13° WSW 22:37:51 13° W 22:39:44 10° WNW visible
09 Aug 3.6 21:00:54 26° ESE 21:02:18 34° ENE 21:05:56 10° N visible
09 Aug 5.5 22:36:53 13° WSW 22:37:28 13° W 22:39:22 10° WNW visible
10 Aug 3.6 21:00:36 27° ESE 21:01:55 34° ENE 21:05:32 10° N visible
10 Aug 5.5 22:36:35 13° W 22:37:05 14° W 22:39:00 10° WNW visible
11 Aug 3.6 21:00:19 27° ESE 21:01:31 33° ENE 21:05:07 10° N visible
11 Aug 5.5 22:36:18 14° W 22:36:40 14° W 22:38:38 10° WNW visible
12 Aug 3.6 21:00:01 28° ESE 21:01:08 33° ENE 21:04:43 10° N visible
12 Aug 5.5 22:36:00 14° W 22:36:17 14° W 22:38:15 10° WNW visible
